Location: Camp at the Woods
(43.2055°N, 93.0905°W)
Time: 09:42:07
(UTC+00:00)

BlueWalker 3 - Pass Details

Date: 24 April 2024
Orbit: 482 x 494 km, 53.2° (Epoch: 22 May)

Event Time Altitude Azimuth Distance (km) Brightness Sun altitude
Rises 02:25:51 0° 279° (W) 2,570 6.8 -14.0°
Reaches altitude 10° 02:28:25 10° 296° (WNW) 1,692 6.0 -14.4°
Maximum altitude 02:31:24 21° 347° (NNW) 1,151 4.3 -14.8°
Drops below altitude 10° 02:34:24 10° 39° (NE) 1,700 4.6 -15.3°
Enters shadow 02:36:56 - 55° (NE) 2,566 5.3 -15.6°
